AAL1209 KSAN-KMIA

Flight info

Callsign AAL1209
Flight time 3h 56m
Altitude 35000
Route ZZOOO4 GBN BAYBI FAAST CAVRN SJT WEELS CLL DAS LLA LEV Q102 BLVNS Y290 DOWRY FROGZ5
Aircraft A21N/M-SDE2E3FGHIRWXY/LB1

Departure

Time 2026-05-04 08:12
Airport San Diego International Airport (KSAN)

Arrival

Time 2026-05-04 12:08
Airport Miami International Airport (KMIA)
Time Latitude Longitude Altitude Speed Heading
2026-05-04 07:46 32.73374 -117.19904 28 ft 0 kts 149°
2026-05-04 07:59 32.73379 -117.19907 27 ft 2 kts 148°
2026-05-04 07:59 32.73392 -117.19917 28 ft 2 kts 145°
2026-05-04 08:00 32.73405 -117.19929 28 ft 2 kts 139°
2026-05-04 08:00 32.73417 -117.19943 29 ft 2 kts 122°
2026-05-04 08:00 32.73419 -117.19962 30 ft 2 kts 47°
2026-05-04 08:02 32.73413 -117.19967 29 ft 0 kts 17°
2026-05-04 08:06 32.73430 -117.19962 26 ft 6 kts 15°
2026-05-04 08:08 32.73299 -117.19162 29 ft 22 kts 105°
2026-05-04 08:08 32.73257 -117.18989 29 ft 22 kts 105°
2026-05-04 08:10 32.72950 -117.17683 31 ft 0 kts 68°
2026-05-04 08:11 32.72954 -117.17673 32 ft 5 kts 68°
2026-05-04 08:11 32.73054 -117.17718 30 ft 29 kts 286°
2026-05-04 08:11 32.73171 -117.18201 33 ft 95 kts 286°
2026-05-04 08:12 32.73420 -117.19223 28 ft 159 kts 287°
2026-05-04 08:12 32.73764 -117.20576 357 ft 177 kts 288°
2026-05-04 08:12 32.74131 -117.22004 947 ft 179 kts 286°
2026-05-04 08:12 32.74456 -117.23361 1830 ft 170 kts 285°
2026-05-04 08:13 32.74783 -117.24762 2268 ft 192 kts 285°
2026-05-04 08:13 32.75167 -117.26402 2665 ft 219 kts 285°
2026-05-04 08:13 32.75595 -117.28191 3453 ft 230 kts 285°
2026-05-04 08:13 32.75887 -117.29410 4067 ft 233 kts 285°
2026-05-04 08:14 32.76325 -117.31291 4957 ft 239 kts 282°
2026-05-04 08:14 32.76370 -117.33882 6171 ft 239 kts 255°
2026-05-04 08:14 32.75653 -117.35638 7107 ft 239 kts 232°
2026-05-04 08:16 32.66159 -117.29862 12599 ft 296 kts 130°
2026-05-04 08:16 32.65082 -117.27973 13274 ft 300 kts 131°
2026-05-04 08:16 32.64283 -117.26586 13752 ft 302 kts 131°
2026-05-04 08:17 32.63077 -117.23647 14495 ft 324 kts 109°
2026-05-04 08:17 32.62797 -117.21866 14674 ft 340 kts 103°
2026-05-04 08:17 32.62446 -117.17982 14993 ft 368 kts 100°
2026-05-04 08:17 32.62197 -117.14880 15224 ft 387 kts 100°
2026-05-04 08:19 32.66744 -116.92309 18137 ft 446 kts 90°
2026-05-04 08:19 32.66879 -116.87353 18779 ft 451 kts 92°
2026-05-04 08:20 32.66927 -116.84885 19097 ft 453 kts 92°
2026-05-04 08:20 32.67000 -116.81137 19602 ft 455 kts 92°
2026-05-04 08:20 32.67101 -116.76133 20199 ft 461 kts 93°
2026-05-04 08:20 32.67091 -116.72337 20656 ft 463 kts 95°
2026-05-04 08:21 32.67029 -116.68488 21106 ft 466 kts 95°
2026-05-04 08:21 32.66961 -116.64631 21601 ft 469 kts 95°
2026-05-04 08:21 32.66917 -116.62061 21877 ft 472 kts 95°
2026-05-04 08:21 32.66829 -116.57013 22401 ft 477 kts 95°
2026-05-04 08:22 32.66784 -116.54398 22686 ft 478 kts 95°
2026-05-04 08:22 32.66730 -116.51410 23161 ft 477 kts 95°
2026-05-04 08:24 32.68257 -116.24014 25354 ft 504 kts 88°
2026-05-04 08:24 32.68632 -116.19863 25593 ft 508 kts 88°
2026-05-04 08:24 32.69003 -116.15734 25910 ft 511 kts 88°
2026-05-04 08:24 32.69380 -116.11529 26202 ft 514 kts 88°
2026-05-04 08:25 32.69757 -116.07300 26544 ft 516 kts 88°
2026-05-04 08:25 32.70135 -116.03047 26791 ft 520 kts 88°
2026-05-04 08:25 32.70528 -115.98770 27030 ft 523 kts 88°
2026-05-04 08:25 32.70928 -115.94472 27335 ft 525 kts 87°
2026-05-04 08:26 32.71328 -115.90136 27521 ft 530 kts 88°
2026-05-04 08:27 32.74141 -115.59215 29140 ft 548 kts 87°
2026-05-04 08:28 32.74545 -115.54707 29379 ft 550 kts 87°
2026-05-04 08:28 32.74903 -115.50312 29666 ft 549 kts 90°
2026-05-04 08:28 32.75060 -115.45852 29998 ft 548 kts 92°
2026-05-04 08:28 32.75160 -115.41329 30255 ft 548 kts 92°
2026-05-04 08:29 32.75253 -115.36804 30501 ft 549 kts 92°
2026-05-04 08:29 32.75350 -115.32263 30728 ft 549 kts 92°
2026-05-04 08:29 32.75449 -115.27728 30988 ft 550 kts 92°
2026-05-04 08:31 32.76121 -114.96582 32715 ft 553 kts 92°
2026-05-04 08:33 32.76736 -114.64665 34280 ft 555 kts 92°
2026-05-04 08:33 32.76816 -114.60169 34491 ft 555 kts 93°
2026-05-04 08:35 32.77247 -114.28224 34886 ft 553 kts 93°
2026-05-04 08:35 32.77302 -114.23666 34880 ft 552 kts 93°
2026-05-04 08:35 32.77406 -114.14629 34879 ft 552 kts 93°
2026-05-04 08:37 32.78920 -113.87764 34871 ft 557 kts 81°
2026-05-04 08:37 32.79582 -113.83226 34864 ft 557 kts 81°
2026-05-04 08:38 32.80893 -113.74154 34856 ft 557 kts 81°
2026-05-04 08:38 32.82188 -113.65076 34856 ft 557 kts 81°
2026-05-04 08:40 32.87284 -113.28746 34859 ft 559 kts 81°
2026-05-04 08:41 32.88546 -113.19624 34852 ft 559 kts 81°
2026-05-04 08:41 32.89794 -113.10550 34859 ft 559 kts 81°
2026-05-04 08:42 32.91043 -113.01420 34872 ft 559 kts 81°
2026-05-04 08:42 32.92286 -112.92290 34887 ft 559 kts 81°
2026-05-04 08:43 32.93520 -112.83163 34903 ft 559 kts 81°
2026-05-04 08:43 32.94740 -112.74087 34913 ft 559 kts 81°
2026-05-04 08:44 32.95310 -112.64908 34907 ft 554 kts 97°
2026-05-04 08:46 32.91134 -112.28652 34850 ft 554 kts 102°
2026-05-04 08:46 32.90068 -112.19589 34856 ft 553 kts 102°
2026-05-04 08:47 32.88998 -112.10532 34871 ft 553 kts 101°
2026-05-04 08:47 32.87924 -112.01523 34894 ft 554 kts 102°
2026-05-04 08:48 32.86836 -111.92456 34914 ft 554 kts 102°
2026-05-04 08:48 32.85741 -111.83390 34931 ft 554 kts 102°
2026-05-04 08:49 32.84638 -111.74318 34924 ft 555 kts 101°
2026-05-04 08:50 32.80724 -111.42538 34873 ft 554 kts 101°
2026-05-04 08:51 32.79594 -111.33489 34888 ft 554 kts 101°
2026-05-04 08:51 32.78456 -111.24439 34928 ft 553 kts 101°
2026-05-04 08:52 32.77320 -111.15457 34913 ft 553 kts 101°
2026-05-04 08:52 32.76127 -111.06425 34928 ft 553 kts 103°
2026-05-04 08:54 32.70444 -110.70552 34921 ft 554 kts 103°
2026-05-04 08:55 32.69023 -110.61589 34928 ft 552 kts 103°
2026-05-04 08:55 32.67594 -110.52625 34941 ft 552 kts 103°
2026-05-04 09:01 32.52208 -109.58806 34863 ft 553 kts 103°
2026-05-04 09:01 32.50724 -109.49995 34843 ft 553 kts 103°
2026-05-04 09:02 32.49214 -109.41070 34840 ft 552 kts 103°
2026-05-04 09:02 32.47700 -109.32162 34850 ft 551 kts 103°
2026-05-04 09:03 32.46192 -109.23322 34852 ft 551 kts 103°
2026-05-04 09:03 32.44669 -109.14435 34847 ft 551 kts 103°
2026-05-04 09:04 32.43142 -109.05565 34851 ft 549 kts 103°
2026-05-04 09:04 32.41613 -108.96725 34867 ft 548 kts 103°
2026-05-04 09:05 32.40087 -108.87940 34864 ft 548 kts 103°
2026-05-04 09:05 32.38546 -108.79104 34872 ft 548 kts 103°
2026-05-04 09:06 32.36999 -108.70278 34877 ft 547 kts 103°
2026-05-04 09:08 32.30784 -108.35180 34924 ft 547 kts 103°
2026-05-04 09:08 32.29207 -108.26371 34881 ft 548 kts 103°
2026-05-04 09:09 32.27753 -108.17973 34879 ft 548 kts 96°
2026-05-04 09:09 32.26854 -108.09103 34886 ft 548 kts 96°
2026-05-04 09:10 32.25996 -108.00182 34883 ft 548 kts 96°
2026-05-04 09:10 32.25181 -107.91407 34882 ft 548 kts 96°
2026-05-04 09:11 32.24348 -107.82462 34879 ft 548 kts 96°
2026-05-04 09:11 32.23928 -107.77988 35043 ft 548 kts 96°
2026-05-04 09:11 32.23511 -107.73574 35055 ft 548 kts 96°
2026-05-04 09:12 32.22658 -107.64630 35040 ft 548 kts 96°
2026-05-04 09:14 32.19194 -107.28963 34890 ft 547 kts 95°
2026-05-04 09:14 32.18311 -107.20036 34940 ft 547 kts 95°
2026-05-04 09:15 32.17423 -107.11115 34980 ft 547 kts 95°
2026-05-04 09:15 32.16527 -107.02190 35032 ft 547 kts 96°
2026-05-04 09:17 32.12439 -106.62239 34938 ft 545 kts 96°
2026-05-04 09:18 32.11520 -106.53426 34923 ft 545 kts 96°
2026-05-04 09:18 32.10588 -106.44556 34934 ft 545 kts 96°
2026-05-04 09:19 32.09651 -106.35691 34943 ft 545 kts 96°
2026-05-04 09:19 32.08705 -106.26809 34929 ft 547 kts 96°
2026-05-04 09:20 32.07760 -106.17992 34924 ft 545 kts 96°
2026-05-04 09:20 32.06804 -106.09134 34899 ft 544 kts 96°
2026-05-04 09:21 32.05842 -106.00278 34889 ft 545 kts 96°
2026-05-04 09:21 32.04874 -105.91425 34886 ft 545 kts 96°
2026-05-04 09:22 32.03905 -105.82618 34891 ft 545 kts 96°
2026-05-04 09:22 32.02924 -105.73760 34889 ft 545 kts 96°
2026-05-04 09:23 32.01937 -105.64900 34891 ft 545 kts 96°
2026-05-04 09:23 32.00941 -105.56037 34889 ft 545 kts 96°
2026-05-04 09:25 31.96914 -105.20695 34883 ft 547 kts 96°
2026-05-04 09:26 31.95888 -105.11830 34888 ft 545 kts 96°
2026-05-04 09:26 31.94867 -105.03069 34882 ft 544 kts 96°
2026-05-04 09:27 31.93832 -104.94249 34884 ft 544 kts 96°
2026-05-04 09:27 31.92793 -104.85430 34877 ft 544 kts 96°
2026-05-04 09:28 31.91747 -104.76602 34888 ft 544 kts 96°
2026-05-04 09:28 31.90700 -104.67842 34886 ft 545 kts 96°
2026-05-04 09:29 31.89639 -104.59013 34882 ft 545 kts 96°
2026-05-04 09:29 31.88573 -104.50188 34886 ft 545 kts 96°
2026-05-04 09:30 31.87501 -104.41366 34887 ft 545 kts 96°
2026-05-04 09:30 31.86422 -104.32539 34882 ft 545 kts 96°
2026-05-04 09:31 31.85344 -104.23777 34881 ft 545 kts 97°
2026-05-04 09:31 31.84252 -104.14944 34878 ft 547 kts 97°
2026-05-04 09:32 31.83150 -104.06077 34840 ft 548 kts 96°
2026-05-04 09:34 31.79087 -103.70764 34862 ft 546 kts 96°
2026-05-04 09:34 31.78072 -103.61923 34867 ft 546 kts 96°
2026-05-04 09:35 31.77049 -103.53086 34859 ft 546 kts 96°
2026-05-04 09:35 31.76025 -103.44301 34870 ft 547 kts 96°
2026-05-04 09:37 31.71842 -103.08918 34873 ft 549 kts 95°
2026-05-04 09:38 31.70776 -103.00027 34875 ft 550 kts 96°
2026-05-04 09:38 31.69701 -102.91127 34881 ft 551 kts 96°
2026-05-04 09:39 31.68620 -102.82229 34876 ft 549 kts 96°
2026-05-04 09:39 31.67545 -102.73430 34893 ft 548 kts 95°
2026-05-04 09:40 31.66456 -102.64566 34895 ft 549 kts 96°
2026-05-04 09:40 31.65360 -102.55701 34906 ft 549 kts 96°
2026-05-04 09:42 31.60914 -102.20252 34892 ft 551 kts 95°
2026-05-04 09:43 31.59781 -102.11347 34900 ft 552 kts 95°
2026-05-04 09:43 31.58643 -102.02452 34912 ft 552 kts 95°
2026-05-04 09:44 31.57505 -101.93615 34906 ft 552 kts 95°
2026-05-04 09:46 31.52871 -101.58088 34918 ft 551 kts 95°
2026-05-04 09:46 31.51696 -101.49209 34918 ft 551 kts 95°
2026-05-04 09:47 31.50516 -101.40336 34921 ft 551 kts 96°
2026-05-04 09:49 31.45735 -101.04881 34926 ft 553 kts 95°
2026-05-04 09:51 31.41468 -100.73848 34958 ft 553 kts 96°
2026-05-04 09:51 31.40232 -100.64966 34973 ft 553 kts 96°
2026-05-04 09:52 31.38990 -100.56092 34994 ft 553 kts 95°
2026-05-04 09:52 31.37732 -100.47209 34979 ft 554 kts 97°
2026-05-04 09:53 31.35873 -100.38506 34975 ft 554 kts 102°
2026-05-04 09:53 31.33865 -100.29808 34942 ft 553 kts 103°
2026-05-04 09:54 31.31814 -100.21138 34938 ft 553 kts 103°
2026-05-04 09:54 31.29757 -100.12460 34935 ft 555 kts 103°
2026-05-04 09:55 31.27700 -100.03767 34932 ft 555 kts 103°
2026-05-04 09:55 31.25651 -99.95124 34932 ft 555 kts 103°
2026-05-04 09:56 31.23592 -99.86429 34934 ft 555 kts 101°
2026-05-04 09:56 31.21931 -99.77657 34937 ft 551 kts 97°
2026-05-04 09:57 31.20518 -99.68871 34934 ft 550 kts 96°
2026-05-04 09:57 31.19098 -99.60145 34939 ft 551 kts 97°
2026-05-04 09:58 31.17616 -99.51367 34947 ft 551 kts 97°
2026-05-04 09:58 31.16108 -99.42601 34950 ft 551 kts 97°
2026-05-04 10:00 31.10029 -99.07666 35011 ft 551 kts 97°
2026-05-04 10:04 30.99208 -98.46835 35002 ft 544 kts 97°
2026-05-04 10:04 30.97649 -98.38210 35004 ft 544 kts 97°
2026-05-04 10:05 30.96082 -98.29576 35000 ft 545 kts 97°
2026-05-04 10:05 30.94509 -98.20946 35001 ft 544 kts 97°
2026-05-04 10:06 30.92933 -98.12328 35027 ft 544 kts 97°
2026-05-04 10:06 30.91362 -98.03776 35023 ft 544 kts 97°
2026-05-04 10:08 30.85797 -97.73753 35041 ft 541 kts 98°
2026-05-04 10:08 30.84210 -97.65259 35045 ft 541 kts 98°
2026-05-04 10:09 30.82608 -97.56711 35057 ft 541 kts 98°
2026-05-04 10:09 30.81000 -97.48172 35022 ft 540 kts 98°
2026-05-04 10:10 30.79388 -97.39646 35026 ft 540 kts 98°
2026-05-04 10:10 30.77781 -97.31176 35028 ft 540 kts 98°
2026-05-04 10:11 30.76158 -97.22655 35026 ft 540 kts 98°
2026-05-04 10:11 30.74528 -97.14136 35029 ft 539 kts 98°
2026-05-04 10:12 30.72895 -97.05632 35031 ft 539 kts 98°
2026-05-04 10:12 30.71269 -96.97189 35040 ft 539 kts 98°
2026-05-04 10:13 30.69625 -96.88684 35050 ft 539 kts 98°
2026-05-04 10:13 30.67976 -96.80193 35061 ft 538 kts 99°
2026-05-04 10:14 30.66329 -96.71738 35065 ft 536 kts 99°
2026-05-04 10:16 30.59659 -96.38098 35056 ft 536 kts 101°
2026-05-04 10:16 30.57757 -96.29723 35057 ft 537 kts 102°
2026-05-04 10:17 30.55831 -96.21412 35048 ft 537 kts 102°
2026-05-04 10:19 30.48180 -95.88141 34936 ft 532 kts 102°
2026-05-04 10:19 30.46267 -95.79859 34936 ft 532 kts 102°
2026-05-04 10:20 30.44345 -95.71573 34990 ft 532 kts 102°
2026-05-04 10:20 30.42425 -95.63323 35049 ft 528 kts 103°
2026-05-04 10:21 30.40524 -95.55180 35079 ft 527 kts 103°
2026-05-04 10:21 30.38608 -95.46992 35082 ft 527 kts 103°
2026-05-04 10:22 30.35723 -95.34713 35082 ft 527 kts 103°
2026-05-04 10:23 30.33810 -95.26596 35083 ft 526 kts 103°
2026-05-04 10:25 30.26030 -94.93852 35112 ft 533 kts 104°
2026-05-04 10:25 30.24065 -94.85650 35085 ft 533 kts 104°
2026-05-04 10:26 30.22081 -94.77396 35085 ft 533 kts 104°
2026-05-04 10:26 30.20093 -94.69142 35085 ft 533 kts 104°
2026-05-04 10:27 30.18149 -94.60945 35082 ft 533 kts 103°
2026-05-04 10:27 30.16302 -94.52654 35090 ft 534 kts 103°
2026-05-04 10:28 30.14463 -94.44319 35087 ft 536 kts 103°
2026-05-04 10:28 30.12607 -94.35986 35089 ft 536 kts 103°
2026-05-04 10:29 30.10750 -94.27717 35091 ft 536 kts 104°
2026-05-04 10:29 30.08871 -94.19392 35111 ft 536 kts 104°
2026-05-04 10:30 30.06991 -94.11088 35090 ft 536 kts 104°
2026-05-04 10:30 30.05102 -94.02763 35041 ft 536 kts 104°
2026-05-04 10:31 30.03225 -93.94522 35077 ft 532 kts 104°
2026-05-04 10:32 29.96609 -93.65666 35098 ft 532 kts 104°
2026-05-04 10:33 29.94706 -93.57419 35098 ft 532 kts 104°
2026-05-04 10:33 29.92811 -93.49236 35102 ft 532 kts 104°
2026-05-04 10:34 29.90898 -93.41004 35103 ft 532 kts 104°
2026-05-04 10:34 29.88981 -93.32773 35105 ft 532 kts 104°
2026-05-04 10:35 29.87057 -93.24541 35105 ft 532 kts 104°
2026-05-04 10:35 29.85141 -93.16369 35106 ft 532 kts 104°
2026-05-04 10:36 29.83207 -93.08145 35107 ft 532 kts 104°
2026-05-04 10:36 29.81270 -92.99929 35108 ft 532 kts 104°
2026-05-04 10:37 29.79328 -92.91718 35065 ft 532 kts 104°
2026-05-04 10:37 29.77396 -92.83575 35101 ft 530 kts 104°
2026-05-04 10:39 29.70558 -92.54948 35100 ft 531 kts 104°
2026-05-04 10:40 29.68602 -92.46814 35097 ft 531 kts 104°
2026-05-04 10:40 29.66630 -92.38633 35104 ft 531 kts 104°
2026-05-04 10:41 29.64813 -92.30403 35104 ft 531 kts 102°
2026-05-04 10:41 29.63140 -92.22144 35098 ft 531 kts 102°
2026-05-04 10:42 29.61465 -92.13885 35112 ft 531 kts 102°
2026-05-04 10:42 29.59774 -92.05688 35103 ft 531 kts 102°
2026-05-04 10:43 29.58056 -91.97445 35110 ft 531 kts 102°
2026-05-04 10:45 29.51136 -91.64539 35117 ft 527 kts 102°
2026-05-04 10:45 29.49406 -91.56377 35117 ft 526 kts 102°
2026-05-04 10:46 29.47673 -91.48231 35133 ft 526 kts 102°
2026-05-04 10:46 29.45945 -91.40128 35120 ft 526 kts 102°
2026-05-04 10:47 29.44201 -91.31976 35128 ft 526 kts 103°
2026-05-04 10:47 29.42452 -91.23830 35126 ft 526 kts 103°
2026-05-04 10:49 29.35399 -90.91236 35116 ft 528 kts 103°
2026-05-04 10:50 29.33616 -90.83061 35116 ft 528 kts 103°
2026-05-04 10:52 29.26756 -90.51842 35117 ft 528 kts 103°
2026-05-04 10:52 29.24644 -90.42306 35087 ft 528 kts 103°
2026-05-04 10:54 29.17650 -90.11245 35103 ft 527 kts 110°
2026-05-04 10:56 29.06285 -89.80361 35108 ft 528 kts 114°
2026-05-04 10:57 29.03380 -89.72645 35114 ft 528 kts 114°
2026-05-04 10:57 29.00477 -89.64938 35112 ft 528 kts 114°
2026-05-04 10:58 28.97568 -89.57231 35107 ft 528 kts 114°
2026-05-04 10:58 28.94674 -89.49581 35090 ft 528 kts 114°
2026-05-04 10:59 28.91761 -89.41897 35105 ft 527 kts 114°
2026-05-04 10:59 28.88848 -89.34231 35102 ft 527 kts 114°
2026-05-04 11:00 28.85938 -89.26588 35102 ft 527 kts 114°
2026-05-04 11:02 28.74240 -88.96017 35101 ft 527 kts 114°
2026-05-04 11:05 28.52101 -88.38826 35097 ft 527 kts 114°
2026-05-04 11:06 28.49125 -88.31204 35093 ft 527 kts 114°
2026-05-04 11:06 28.46165 -88.23638 35094 ft 527 kts 115°
2026-05-04 11:10 28.28327 -87.69148 35097 ft 526 kts 108°
2026-05-04 11:12 28.19138 -87.37660 35089 ft 527 kts 108°
2026-05-04 11:12 28.16842 -87.29840 35089 ft 527 kts 108°
2026-05-04 11:13 28.14523 -87.21959 35086 ft 527 kts 108°
2026-05-04 11:13 28.12201 -87.14087 35086 ft 527 kts 108°
2026-05-04 11:14 28.11808 -87.12757 35086 ft 527 kts 108°
2026-05-04 11:16 28.00539 -86.74803 35083 ft 526 kts 108°
2026-05-04 11:16 27.98255 -86.66939 35083 ft 526 kts 108°
2026-05-04 11:17 27.96002 -86.59120 35083 ft 526 kts 108°
2026-05-04 11:19 27.86867 -86.27726 35083 ft 527 kts 108°
2026-05-04 11:19 27.84563 -86.19866 35085 ft 527 kts 108°
2026-05-04 11:20 27.82258 -86.12016 35081 ft 527 kts 108°
2026-05-04 11:20 27.79944 -86.04156 35080 ft 527 kts 108°
2026-05-04 11:22 27.70664 -85.72818 35081 ft 527 kts 108°
2026-05-04 11:23 27.68345 -85.65031 35077 ft 527 kts 108°
2026-05-04 11:25 27.60139 -85.37624 35079 ft 528 kts 109°
2026-05-04 11:25 27.58394 -85.29669 35078 ft 527 kts 100°
2026-05-04 11:27 27.52017 -84.93404 35069 ft 529 kts 100°
2026-05-04 11:28 27.50583 -84.85283 35070 ft 529 kts 100°
2026-05-04 11:28 27.49145 -84.77171 35067 ft 528 kts 100°
2026-05-04 11:29 27.47703 -84.69059 35070 ft 528 kts 100°
2026-05-04 11:29 27.46264 -84.60995 35064 ft 529 kts 100°
2026-05-04 11:33 27.35987 -84.04215 35066 ft 529 kts 101°
2026-05-04 11:33 27.34509 -83.96160 35068 ft 529 kts 101°
2026-05-04 11:34 27.33017 -83.88054 35066 ft 529 kts 101°
2026-05-04 11:34 27.31521 -83.79957 35066 ft 529 kts 101°
2026-05-04 11:35 27.30020 -83.71864 35064 ft 529 kts 101°
2026-05-04 11:35 27.28526 -83.63829 35064 ft 529 kts 101°
2026-05-04 11:36 27.27017 -83.55745 35068 ft 529 kts 101°
2026-05-04 11:36 27.25503 -83.47657 35067 ft 529 kts 101°
2026-05-04 11:37 27.23981 -83.39559 35067 ft 530 kts 101°
2026-05-04 11:37 27.22466 -83.31522 35067 ft 530 kts 102°
2026-05-04 11:38 27.20935 -83.23425 35070 ft 529 kts 102°
2026-05-04 11:38 27.19401 -83.15337 35068 ft 529 kts 102°
2026-05-04 11:39 27.17862 -83.07257 35066 ft 529 kts 102°
2026-05-04 11:40 27.12784 -82.83248 35057 ft 525 kts 118°
2026-05-04 11:41 27.11040 -82.79674 35061 ft 522 kts 124°
2026-05-04 11:41 27.07229 -82.72736 35058 ft 522 kts 126°
2026-05-04 11:42 27.03431 -82.65869 35056 ft 521 kts 125°
2026-05-04 11:42 26.99615 -82.58951 35058 ft 521 kts 125°
2026-05-04 11:43 26.95800 -82.52034 35050 ft 522 kts 125°
2026-05-04 11:43 26.91893 -82.45189 35058 ft 518 kts 134°
2026-05-04 11:44 26.86846 -82.39715 35056 ft 507 kts 146°
2026-05-04 11:44 26.81485 -82.34607 35048 ft 505 kts 146°
2026-05-04 11:45 26.76140 -82.29507 35050 ft 505 kts 146°
2026-05-04 11:45 26.70800 -82.24403 35047 ft 505 kts 146°
2026-05-04 11:46 26.65497 -82.19337 34996 ft 505 kts 146°
2026-05-04 11:46 26.60158 -82.14239 35042 ft 504 kts 146°
2026-05-04 11:47 26.54829 -82.09159 35031 ft 504 kts 146°
2026-05-04 11:47 26.49556 -82.03966 35035 ft 506 kts 144°
2026-05-04 11:48 26.44374 -81.98733 35035 ft 506 kts 144°
2026-05-04 11:48 26.39151 -81.93470 35030 ft 506 kts 144°
2026-05-04 11:49 26.33925 -81.88216 35028 ft 506 kts 144°
2026-05-04 11:49 26.28700 -81.82972 35034 ft 504 kts 145°
2026-05-04 11:50 26.23633 -81.77565 35029 ft 512 kts 131°
2026-05-04 11:50 26.21796 -81.74157 35046 ft 518 kts 120°
2026-05-04 11:50 26.20280 -81.70563 35032 ft 520 kts 118°
2026-05-04 11:51 26.17267 -81.63311 34858 ft 517 kts 118°
2026-05-04 11:51 26.15736 -81.59709 33986 ft 513 kts 118°
2026-05-04 11:51 26.14277 -81.56319 32661 ft 519 kts 118°
2026-05-04 11:51 26.12707 -81.52696 31559 ft 518 kts 118°
2026-05-04 11:52 26.11195 -81.49218 30732 ft 512 kts 118°
2026-05-04 11:52 26.09654 -81.45678 29900 ft 505 kts 118°
2026-05-04 11:52 26.08177 -81.42294 29103 ft 496 kts 118°
2026-05-04 11:52 26.06706 -81.38923 28349 ft 487 kts 118°
2026-05-04 11:53 26.05245 -81.35566 27622 ft 478 kts 118°
2026-05-04 11:53 26.03809 -81.32267 26904 ft 469 kts 118°
2026-05-04 11:53 26.02399 -81.29032 26226 ft 461 kts 118°
2026-05-04 11:53 26.01057 -81.25957 25559 ft 453 kts 119°
2026-05-04 11:55 25.91951 -81.05141 20545 ft 407 kts 120°
2026-05-04 11:55 25.90773 -81.02298 19797 ft 403 kts 117°
2026-05-04 11:56 25.89686 -80.99475 19354 ft 391 kts 117°
2026-05-04 11:56 25.88642 -80.96733 18831 ft 381 kts 117°
2026-05-04 11:56 25.87653 -80.94143 18260 ft 375 kts 117°
2026-05-04 11:56 25.86640 -80.91498 17547 ft 371 kts 117°
2026-05-04 11:57 25.85690 -80.89025 16878 ft 367 kts 117°
2026-05-04 11:57 25.84695 -80.86436 16188 ft 363 kts 117°
2026-05-04 11:57 25.83710 -80.83875 15507 ft 360 kts 117°
2026-05-04 11:57 25.82730 -80.81328 14834 ft 357 kts 117°
2026-05-04 11:58 25.81759 -80.78809 14183 ft 354 kts 117°
2026-05-04 11:58 25.80797 -80.76312 13532 ft 350 kts 117°
2026-05-04 11:58 25.79860 -80.73879 13106 ft 337 kts 117°
2026-05-04 11:58 25.78949 -80.71516 12606 ft 329 kts 116°
2026-05-04 11:59 25.78071 -80.69241 12104 ft 323 kts 116°
2026-05-04 11:59 25.77184 -80.66970 11485 ft 319 kts 118°
2026-05-04 11:59 25.75960 -80.64943 10698 ft 316 kts 140°
2026-05-04 11:59 25.74139 -80.63683 10005 ft 305 kts 167°
2026-05-04 12:00 25.72101 -80.63483 9400 ft 287 kts 195°
2026-05-04 12:00 25.70357 -80.64313 8853 ft 267 kts 226°
2026-05-04 12:00 25.69305 -80.65932 8244 ft 257 kts 251°
2026-05-04 12:00 25.68740 -80.67820 7537 ft 261 kts 260°
2026-05-04 12:01 25.68612 -80.69795 7244 ft 263 kts 277°
2026-05-04 12:01 25.69176 -80.71713 7011 ft 265 kts 301°
2026-05-04 12:02 25.76901 -80.67877 5602 ft 288 kts 76°
2026-05-04 12:03 25.77181 -80.65704 5374 ft 281 kts 85°
2026-05-04 12:03 25.77281 -80.63597 5155 ft 274 kts 87°
2026-05-04 12:03 25.77358 -80.61500 4801 ft 271 kts 87°
2026-05-04 12:03 25.77465 -80.59414 4422 ft 271 kts 85°
2026-05-04 12:04 25.77579 -80.57330 4099 ft 271 kts 86°
2026-05-04 12:04 25.77645 -80.55220 4050 ft 276 kts 88°
2026-05-04 12:04 25.77708 -80.53080 3853 ft 278 kts 86°
2026-05-04 12:04 25.77801 -80.50938 3512 ft 278 kts 86°
2026-05-04 12:05 25.77894 -80.48803 3107 ft 276 kts 86°
2026-05-04 12:05 25.77980 -80.46686 2714 ft 273 kts 86°
2026-05-04 12:05 25.78064 -80.44627 2351 ft 266 kts 86°
2026-05-04 12:05 25.78144 -80.42643 2016 ft 248 kts 85°
2026-05-04 12:06 25.78222 -80.40775 1738 ft 238 kts 85°
2026-05-04 12:06 25.78298 -80.38999 1420 ft 224 kts 84°
2026-05-04 12:06 25.78365 -80.37326 1117 ft 208 kts 85°
2026-05-04 12:06 25.78427 -80.35792 865 ft 191 kts 84°
2026-05-04 12:07 25.78486 -80.34386 635 ft 175 kts 84°
2026-05-04 12:07 25.78541 -80.33087 390 ft 163 kts 86°
2026-05-04 12:07 25.78579 -80.31870 145 ft 152 kts 85°
2026-05-04 12:07 25.78641 -80.30777 23 ft 134 kts 85°
2026-05-04 12:08 25.78676 -80.29934 17 ft 101 kts 88°
2026-05-04 12:08 25.78716 -80.29000 17 ft 102 kts 89°
2026-05-04 12:08 25.78810 -80.28442 18 ft 41 kts 50°
2026-05-04 12:08 25.78957 -80.28244 19 ft 29 kts 51°
2026-05-04 12:09 25.79054 -80.28172 19 ft 13 kts 324°
2026-05-04 12:09 25.79107 -80.28255 19 ft 13 kts 304°
2026-05-04 12:09 25.79156 -80.28344 18 ft 16 kts 299°
2026-05-04 12:09 25.79241 -80.28372 19 ft 15 kts 39°
2026-05-04 12:10 25.79284 -80.28299 18 ft 10 kts 105°
2026-05-04 12:10 25.79249 -80.28249 20 ft 8 kts 132°
2026-05-04 12:10 25.79245 -80.28245 19 ft 0 kts 132°